Flag for Germany Weather past 2 weeks in Kempten, Bavaria, Germany

Now
65 °F

Overcast.


Feels Like: 65 °F
Forecast: 57 / 84 °F
Wind: 1 mph from Southeast

Location: Kempten

Current Time: Aug 4, 2015 at 10:27:12 PM

Latest Report: Aug 4, 2015 at 10:00 PM


Visibility: 18 mi

Pressure: 30.07 "Hg (27.79 "Hg at 673m altitude)

Humidity: 88%

Dew point: 62 °F

Location of KemptenLocation

Historic Weather in Kempten — Graph

°F

Kempten temperature yesterday

Maximum temperature yesterday: 83 °F (at 3:00 PM)
Minimum temperature yesterday: 51 °F (at 6:00 AM)
Average temperature yesterday: 69 °F

Past Weeks' High & Low Weather Summary

 TemperatureHumidityPressure
High88 °F (Jul 22, 2:00 PM)98% (Jul 30, 1:00 AM)30.13 "Hg (Jul 30, 1:00 AM)
Low44 °F (Jul 31, 7:00 AM)32% (Jul 21, 7:00 PM)29.64 "Hg (Jul 24, 6:00 PM)
Average65 °F69%29.92 "Hg
* Reported Jul 20 9:00 PM — Aug 4 9:00 PM, Kempten, Weather by CustomWeather, © 2015

Note: Actual official high and low records may vary slightly from our data, if they occured in-between our weather recording intervals... More about our weather records

Advertising

Kempten weather history for previous 24 hours

 ConditionsComfort  
Time TempWeatherWind HumidityBarometerVisibility
9:00 PM
Tue, Aug 4
66 °FOvercast.1 mph85%30.05 "Hg22 mi
8:00 PM67 °FOvercast.2 mph81%30.04 "Hg25 mi
7:00 PM66 °FPartly sunny.2 mph86%30.02 "Hg19 mi
6:00 PM73 °FDrizzle. Overcast.3 mph62%29.99 "Hg22 mi
5:00 PM77 °FOvercast.3 mph54%29.96 "Hg22 mi
4:00 PM80 °FPartly sunny.6 mph48%29.93 "Hg13 mi
3:00 PM78 °FPartly sunny.3 mph49%29.93 "Hg19 mi
2:00 PM80 °FSunny.6 mph44%29.92 "Hg11 mi
1:00 PM80 °FSunny.6 mph46%29.92 "Hg17 mi
12:00 PM80 °FPassing clouds.6 mph47%29.90 "Hg22 mi
10:00 AM74 °FSunny.2 mph57%29.90 "Hg17 mi
9:00 AM69 °FSunny.2 mph64%29.93 "Hg17 mi
8:00 AM64 °FSunny.2 mph75%29.96 "Hg22 mi
7:00 AM58 °FSunny.2 mph91%30.00 "Hg16 mi
4:00 AM58 °FClear.3 mph92%30.01 "Hg17 mi
3:00 AM58 °FClear.3 mph94%30.02 "Hg15 mi
2:00 AM59 °FClear.3 mph93%30.02 "Hg15 mi
1:00 AM60 °FClear.3 mph89%30.02 "Hg19 mi
10:00 PM
Mon, Aug 3
66 °FClear.2 mph79%30.01 "Hg22 mi
Weather by CustomWeather, © 2015

See weather overviewHow to use our weather pages